Jefferson, NC

3:40 AM EDT on August 22, 2019 (GMT -0400)
Ashe County

Weather History for KGEV - June, 2019

Change the Weather History Date:

Sunday, June 9, 2019

  Actual Average Record
Temperature  
Mean Temperature 62 °F -  
Max Temperature 64 °F 76 °F 91 °F (2008)
Min Temperature 61 °F 51 °F 41 °F (1975)
Degree Days  
Heating Degree Days 2    
Growing Degree Days 12 (Base 50)    
Moisture  
Dew Point 63 °F    
Average Humidity 100    
Maximum Humidity 100    
Minimum Humidity 99    
Precipitation  
Precipitation 1.31 in - - ()
Sea Level Pressure  
Sea Level Pressure 30.09 in    
Wind  
Wind Speed 7 mph (ESE)    
Max Wind Speed 20 mph    
Max Gust Speed 26 mph    
Visibility 3 miles    
Events Fog , Rain    
Averages and records for this station are not official NWS values.
T = Trace of Precipitation, MM = Missing Value Source: NWS Daily Summary

Daily Weather History Graph

Daily Weather History Graph

Search for Another Location

Airport or City:

Astronomy

Jun. 09, 2019 Rise Set
Actual Time 6:07 AM EDT 8:42 PM EDT
Civil Twilight 5:37 AM EDT 9:12 PM EDT
Nautical Twilight 4:59 AM EDT 9:50 PM EDT
Astronomical Twilight 4:17 AM EDT 10:32 PM EDT
Moon 12:38 PM EDT (6/9) 1:27 AM EDT (6/9)
Length of Visible Light 15h 35m
Length of Day
14h 35m
Waxing Crescent, 43% of the Moon is Illuminated
Jun 9
Waxing Crescent
Jun 10
First Quarter
Jun 17
Full
Jun 25
Last Quarter
Jul 2
New

Hourly Weather History & Observations

Time (EDT) Temp. Dew Point Humidity Pressure Visibility Wind Dir Wind Speed Gust Speed Precip Events Conditions
12:05 AM 62.2 °F 62.2 °F 100% 30.08 in 5.0 mi SE 3.5 mph - 0.01 in Rain Light Rain
12:25 AM 62.6 °F 62.6 °F 100% 30.07 in 10.0 mi ESE 9.2 mph 19.6 mph 0.01 in   Light Drizzle
12:45 AM 62.4 °F 62.4 °F 100% 30.07 in 5.0 mi ESE 6.9 mph 20.7 mph 0.01 in Rain Rain
1:05 AM 62.2 °F 62.1 °F 99% 30.06 in 7.0 mi East 10.4 mph - 0.02 in Rain Rain
1:25 AM 62.6 °F 62.6 °F 100% 30.06 in 4.0 mi ESE 9.2 mph 17.3 mph 0.07 in Rain Rain
1:45 AM 62.6 °F 62.6 °F 100% 30.06 in 4.0 mi ESE 13.8 mph 20.7 mph 0.16 in Rain Rain
2:05 AM 62.8 °F 62.8 °F 100% 30.05 in 3.0 mi ESE 19.6 mph 26.5 mph 0.01 in Rain Light Rain
2:25 AM 62.6 °F 62.6 °F 100% 30.04 in 4.0 mi ESE 9.2 mph 23.0 mph 0.01 in Rain Light Rain
2:45 AM 62.6 °F 62.4 °F 99% 30.04 in 7.0 mi East 11.5 mph 25.3 mph 0.04 in Rain Light Rain
3:05 AM 62.6 °F 62.6 °F 100% 30.04 in 5.0 mi East 12.7 mph 19.6 mph 0.01 in Rain Light Rain
3:25 AM 62.6 °F 62.6 °F 100% 30.03 in 5.0 mi East 12.7 mph 25.3 mph 0.05 in Rain Rain
3:45 AM 63.0 °F 62.6 °F 99% 30.03 in 7.0 mi ESE 6.9 mph 26.5 mph 0.07 in Rain Light Rain
4:05 AM 63.0 °F 62.6 °F 99% 30.03 in 10.0 mi East 13.8 mph 19.6 mph 0.01 in   Drizzle
4:25 AM 62.8 °F 62.6 °F 99% 30.04 in 5.0 mi ESE 8.1 mph - 0.03 in Rain Rain
4:45 AM 62.6 °F 62.6 °F 100% 30.04 in 10.0 mi ESE 8.1 mph - 0.04 in   Light Drizzle
5:05 AM 62.8 °F 62.4 °F 99% 30.03 in 10.0 mi ESE 10.4 mph 17.3 mph N/A   Light Drizzle
5:25 AM 62.8 °F 62.6 °F 99% 30.04 in 7.0 mi ESE 9.2 mph 17.3 mph 0.02 in Rain Light Rain
5:45 AM 62.6 °F 62.6 °F 100% 30.04 in 7.0 mi ESE 8.1 mph - 0.02 in Rain Light Rain
6:05 AM 62.6 °F 62.6 °F 100% 30.04 in 7.0 mi East 11.5 mph - N/A Rain Light Rain
6:25 AM 62.4 °F 62.2 °F 99% 30.05 in 4.0 mi ESE 5.8 mph - 0.06 in Rain Heavy Rain
6:45 AM 62.2 °F 62.1 °F 99% 30.06 in 4.0 mi East 10.4 mph 19.6 mph 0.19 in Rain Rain
7:05 AM 62.2 °F 61.9 °F 99% 30.08 in 2.0 mi SSE 5.8 mph 25.3 mph 0.08 in Rain Heavy Rain
7:25 AM 61.3 °F 61.3 °F 100% 30.09 in 1.5 mi SE 3.5 mph - 0.25 in Rain Heavy Rain
7:45 AM 61.2 °F 61.2 °F 100% 30.09 in 2.5 mi Calm Calm - 0.32 in Rain Rain
8:05 AM 61.2 °F 61.2 °F 100% 30.09 in 1.8 mi Calm Calm - 0.02 in Rain Heavy Rain
8:25 AM 61.3 °F 61.3 °F 100% 30.09 in 0.8 mi Calm Calm - 0.05 in Rain Rain
8:45 AM 61.9 °F 61.9 °F 100% 30.10 in 2.0 mi ESE 3.5 mph - 0.10 in Rain Heavy Rain
9:05 AM 62.1 °F 62.1 °F 100% 30.10 in 2.0 mi East 4.6 mph - 0.08 in Rain Heavy Rain
9:25 AM 61.9 °F 61.9 °F 100% 30.11 in 5.0 mi East 9.2 mph - 0.16 in Rain Light Rain
9:45 AM 61.7 °F 61.7 °F 100% 30.12 in 1.5 mi SE 3.5 mph - 0.26 in Rain Heavy Rain
10:05 AM 62.4 °F 62.4 °F 100% 30.11 in 5.0 mi East 5.8 mph - 0.01 in Rain Rain
10:25 AM 62.6 °F 62.4 °F 99% 30.11 in 3.0 mi Calm Calm - 0.03 in Rain Rain
10:45 AM 62.1 °F 62.1 °F 100% 30.11 in 2.5 mi ESE 5.8 mph - 0.06 in Rain Rain
11:05 AM 61.7 °F 61.7 °F 100% 30.12 in 1.8 mi East 8.1 mph - N/A   Drizzle
11:25 AM 61.9 °F 61.9 °F 100% 30.12 in 2.5 mi ESE 5.8 mph - 0.01 in Rain Light Rain
11:45 AM 62.1 °F 62.1 °F 100% 30.13 in 3.0 mi ESE 6.9 mph - 0.01 in Rain Light Rain
12:05 PM 62.1 °F 62.1 °F 100% 30.13 in 4.0 mi ESE 6.9 mph - N/A Rain Light Rain
12:25 PM 62.6 °F 62.6 °F 100% 30.13 in 5.0 mi ESE 6.9 mph - 0.01 in Rain Rain
12:45 PM 62.8 °F 62.8 °F 100% 30.13 in 7.0 mi East 5.8 mph - 0.01 in   Light Drizzle
1:05 PM 63.0 °F 63.0 °F 100% 30.13 in 4.0 mi East 5.8 mph - N/A   Light Drizzle
1:25 PM 63.3 °F 63.3 °F 100% 30.13 in 10.0 mi East 5.8 mph - 0.01 in   Overcast
1:45 PM 63.0 °F 63.0 °F 100% 30.13 in 7.0 mi SE 8.1 mph - 0.01 in Rain Rain
2:05 PM 63.0 °F 63.0 °F 100% 30.12 in 1.2 mi SE 3.5 mph - N/A Rain Rain
2:25 PM 63.1 °F 63.1 °F 100% 30.11 in 2.5 mi SE 3.5 mph - 0.01 in Rain Light Rain
2:45 PM 63.1 °F 63.1 °F 100% 30.12 in 1.0 mi ESE 3.5 mph - 0.01 in   Light Drizzle
3:05 PM 62.8 °F 62.8 °F 100% 30.12 in 0.5 mi SE 4.6 mph - N/A   Light Drizzle
3:25 PM 62.8 °F 62.8 °F 100% 30.11 in 0.5 mi ESE 4.6 mph - N/A Fog Fog
3:45 PM 63.5 °F 63.5 °F 100% 30.11 in 0.8 mi ESE 3.5 mph - N/A   Overcast
4:05 PM 63.7 °F 63.7 °F 100% 30.11 in 3.0 mi SE 3.5 mph - N/A   Overcast
4:25 PM 64.0 °F 64.0 °F 100% 30.10 in 4.0 mi SSE 3.5 mph - N/A   Overcast
4:45 PM 64.0 °F 64.0 °F 100% 30.10 in 4.0 mi SE 3.5 mph - N/A   Overcast
5:05 PM 64.2 °F 64.2 °F 100% 30.10 in 1.8 mi SE 3.5 mph - N/A   Light Drizzle
5:25 PM 63.9 °F 63.9 °F 100% 30.10 in 7.0 mi SE 4.6 mph - N/A   Overcast
5:45 PM 63.5 °F 63.5 °F 100% 30.09 in 3.0 mi ESE 4.6 mph - N/A   Light Drizzle
6:05 PM 63.1 °F 63.1 °F 100% 30.10 in 7.0 mi SE 3.5 mph - N/A   Overcast
6:25 PM 63.0 °F 63.0 °F 100% 30.09 in 0.5 mi SE 3.5 mph - N/A   Light Drizzle
6:45 PM 63.0 °F 63.0 °F 100% 30.09 in 0.2 mi SE 3.5 mph - N/A Fog Fog
7:05 PM 63.0 °F 63.0 °F 100% 30.10 in 0.5 mi Calm Calm - N/A Fog Fog
7:25 PM 63.0 °F 63.0 °F 100% 30.09 in 1.8 mi SE 4.6 mph - N/A   Overcast
7:45 PM 62.8 °F 62.8 °F 100% 30.10 in 0.5 mi Calm Calm - N/A Fog Fog
8:05 PM 62.8 °F 62.8 °F 100% 30.10 in 0.2 mi SE 3.5 mph - N/A Rain Light Rain
8:25 PM 62.6 °F 62.6 °F 100% 30.11 in 0.2 mi Calm Calm - N/A   Light Drizzle
8:45 PM 62.6 °F 62.6 °F 100% 30.10 in 0.2 mi Calm Calm - N/A   Light Drizzle
9:05 PM 62.2 °F 62.2 °F 100% 30.11 in 0.2 mi Calm Calm - N/A Fog Fog
9:25 PM 62.2 °F 62.2 °F 100% 30.12 in 0.2 mi SE 4.6 mph - N/A   Drizzle
9:45 PM 62.1 °F 62.1 °F 100% 30.12 in 0.2 mi SE 3.5 mph - N/A   Drizzle
10:05 PM 62.1 °F 62.1 °F 100% 30.12 in 0.2 mi Calm Calm - N/A Fog Fog
10:25 PM 61.9 °F 61.9 °F 100% 30.12 in 0.2 mi SE 3.5 mph - N/A   Drizzle
10:45 PM 61.9 °F 61.9 °F 100% 30.13 in 0.2 mi Calm Calm - 0.01 in   Drizzle
11:05 PM 61.9 °F 61.9 °F 100% 30.12 in 0.5 mi ESE 3.5 mph - N/A   Light Drizzle
11:25 PM 61.9 °F 61.9 °F 100% 30.12 in 0.8 mi Calm Calm - N/A   Overcast
11:45 PM 61.9 °F 61.9 °F 100% 30.11 in 0.5 mi Calm Calm - N/A Fog Fog